TimeCST,TemperatureF,Dew PointF,Humidity,Sea Level PressureIn,VisibilityMPH,Wind Direction,Wind SpeedMPH,Gust SpeedMPH,PrecipitationIn,Events,Conditions,WindDirDegrees,DateUTC
12:15 AM,19.4,14.0,80,30.30,10.0,North,8.1,-,N/A,,Overcast,350,2013-03-02 06:15:00
12:35 AM,19.4,14.0,80,30.31,10.0,North,6.9,-,N/A,,Overcast,350,2013-03-02 06:35:00
12:55 AM,19.4,15.8,86,30.31,10.0,NNW,10.4,-,N/A,,Overcast,340,2013-03-02 06:55:00
1:15 AM,17.6,14.0,86,30.29,10.0,North,5.8,12.7,N/A,,Overcast,360,2013-03-02 07:15:00
1:35 AM,17.6,14.0,86,30.29,10.0,NNW,4.6,-,N/A,,Overcast,340,2013-03-02 07:35:00
1:55 AM,17.6,14.0,86,30.30,10.0,North,-9999.0,-,N/A,,Overcast,0,2013-03-02 07:55:00
2:15 AM,17.6,14.0,86,30.30,10.0,NNW,3.5,-,N/A,,Overcast,330,2013-03-02 08:15:00
2:35 AM,19.4,14.0,80,30.29,10.0,NW,3.5,-,N/A,,Overcast,310,2013-03-02 08:35:00
2:55 AM,17.6,14.0,86,30.28,10.0,WNW,4.6,-,N/A,,Overcast,300,2013-03-02 08:55:00
3:15 AM,17.6,14.0,86,30.28,10.0,WNW,6.9,-,N/A,,Overcast,290,2013-03-02 09:15:00
3:35 AM,17.6,14.0,86,30.28,10.0,WNW,5.8,-,N/A,,Overcast,300,2013-03-02 09:35:00
3:55 AM,15.8,12.2,86,30.28,10.0,WNW,8.1,-,N/A,,Overcast,300,2013-03-02 09:55:00
4:15 AM,17.6,14.0,86,30.28,10.0,NW,8.1,-,N/A,,Overcast,310,2013-03-02 10:15:00
4:35 AM,17.6,14.0,86,30.29,10.0,NW,6.9,-,N/A,,Overcast,320,2013-03-02 10:35:00
4:55 AM,15.8,14.0,93,30.29,10.0,NNW,5.8,-,N/A,,Overcast,330,2013-03-02 10:55:00
5:15 AM,15.8,14.0,93,30.29,10.0,NNW,6.9,-,N/A,,Overcast,330,2013-03-02 11:15:00
5:35 AM,17.6,14.0,86,30.29,10.0,NNW,5.8,-,N/A,,Overcast,330,2013-03-02 11:35:00
5:55 AM,15.8,14.0,93,30.28,10.0,NW,5.8,-,N/A,,Mostly Cloudy,310,2013-03-02 11:55:00
6:35 AM,15.8,12.2,86,30.28,10.0,WNW,6.9,-,N/A,,Clear,300,2013-03-02 12:35:00
6:55 AM,15.8,14.0,93,30.28,10.0,NW,5.8,-,N/A,,Clear,310,2013-03-02 12:55:00
7:15 AM,15.8,14.0,93,30.28,10.0,NW,5.8,-,N/A,,Clear,320,2013-03-02 13:15:00
7:35 AM,14.0,12.2,93,30.29,-9999.0,NW,8.1,-,N/A,,Unknown,320,2013-03-02 13:35:00
7:55 AM,14.0,12.2,93,30.29,10.0,NW,5.8,-,N/A,,Clear,320,2013-03-02 13:55:00
8:15 AM,15.8,14.0,93,30.28,10.0,NW,5.8,-,N/A,,Clear,320,2013-03-02 14:15:00
8:35 AM,15.8,14.0,93,30.29,10.0,NW,5.8,-,N/A,,Clear,320,2013-03-02 14:35:00
8:55 AM,17.6,14.0,86,30.28,10.0,NNW,5.8,-,N/A,,Clear,330,2013-03-02 14:55:00
9:15 AM,17.6,14.0,86,30.29,10.0,NNW,4.6,-,N/A,,Clear,330,2013-03-02 15:15:00
9:35 AM,17.6,15.8,93,30.28,10.0,NW,5.8,-,N/A,,Clear,310,2013-03-02 15:35:00
9:55 AM,19.4,15.8,86,30.28,10.0,NW,4.6,-,N/A,,Clear,310,2013-03-02 15:55:00
10:15 AM,19.4,15.8,86,30.27,10.0,WNW,4.6,-,N/A,,Clear,290,2013-03-02 16:15:00
10:35 AM,19.4,15.8,86,30.26,10.0,Calm,Calm,-,N/A,,Clear,0,2013-03-02 16:35:00
10:55 AM,21.2,15.8,80,30.26,10.0,Calm,Calm,-,N/A,,Clear,0,2013-03-02 16:55:00
11:15 AM,23.0,15.8,74,30.26,10.0,Calm,Calm,-,N/A,,Clear,0,2013-03-02 17:15:00
11:35 AM,21.2,15.8,80,30.25,10.0,Calm,Calm,-,N/A,,Clear,0,2013-03-02 17:35:00
11:55 AM,21.2,15.8,80,30.24,10.0,Calm,Calm,-,N/A,,Clear,0,2013-03-02 17:55:00
12:15 PM,23.0,17.6,80,30.25,10.0,Calm,Calm,-,N/A,,Clear,0,2013-03-02 18:15:00
12:35 PM,23.0,17.6,80,30.23,10.0,Calm,Calm,-,N/A,,Clear,0,2013-03-02 18:35:00
12:55 PM,23.0,17.6,80,30.22,10.0,Calm,Calm,-,N/A,,Clear,0,2013-03-02 18:55:00
1:15 PM,24.8,17.6,74,30.22,10.0,Calm,Calm,-,N/A,,Clear,0,2013-03-02 19:15:00
1:35 PM,24.8,17.6,74,30.21,10.0,Variable,4.6,-,N/A,,Clear,0,2013-03-02 19:35:00
1:55 PM,24.8,17.6,74,30.20,10.0,South,3.5,-,N/A,,Clear,190,2013-03-02 19:55:00
2:15 PM,24.8,17.6,74,30.20,10.0,South,4.6,-,N/A,,Clear,170,2013-03-02 20:15:00
2:35 PM,24.8,17.6,74,30.19,10.0,SSE,4.6,-,N/A,,Clear,160,2013-03-02 20:35:00
2:55 PM,26.6,19.4,74,30.19,10.0,SSE,4.6,-,N/A,,Clear,160,2013-03-02 20:55:00
3:15 PM,26.6,19.4,74,30.18,10.0,South,8.1,-,N/A,,Mostly Cloudy,170,2013-03-02 21:15:00
3:35 PM,26.6,19.4,74,30.17,10.0,South,8.1,-,N/A,,Mostly Cloudy,170,2013-03-02 21:35:00
3:55 PM,26.6,19.4,74,30.17,10.0,South,9.2,-,N/A,,Overcast,180,2013-03-02 21:55:00
4:15 PM,26.6,19.4,74,30.17,10.0,SSE,9.2,-,N/A,,Overcast,160,2013-03-02 22:15:00
4:35 PM,26.6,19.4,74,30.17,10.0,South,8.1,-,N/A,,Overcast,170,2013-03-02 22:35:00
4:55 PM,26.6,19.4,74,30.15,10.0,SSE,10.4,-,N/A,,Overcast,160,2013-03-02 22:55:00
5:15 PM,26.6,19.4,74,30.15,10.0,South,10.4,-,N/A,,Overcast,170,2013-03-02 23:15:00
5:35 PM,26.6,19.4,74,30.15,10.0,South,9.2,-,N/A,,Overcast,170,2013-03-02 23:35:00
5:55 PM,26.6,19.4,74,30.14,10.0,SSE,8.1,-,N/A,,Overcast,150,2013-03-02 23:55:00
6:15 PM,26.6,21.2,80,30.14,10.0,SSE,9.2,-,N/A,,Overcast,160,2013-03-03 00:15:00
6:35 PM,26.6,21.2,80,30.14,10.0,South,10.4,-,N/A,,Overcast,170,2013-03-03 00:35:00
6:55 PM,26.6,21.2,80,30.13,-9999.0,SSE,10.4,-,N/A,,Overcast,160,2013-03-03 00:55:00
7:15 PM,26.6,21.2,80,30.13,10.0,SE,6.9,-,N/A,,Overcast,130,2013-03-03 01:15:00
7:35 PM,26.6,23.0,86,30.13,10.0,SE,6.9,-,N/A,,Overcast,140,2013-03-03 01:35:00
7:55 PM,26.6,23.0,86,30.14,10.0,SE,6.9,-,N/A,,Overcast,140,2013-03-03 01:55:00
8:15 PM,26.6,23.0,86,30.13,10.0,SE,9.2,-,N/A,,Overcast,140,2013-03-03 02:15:00
8:35 PM,26.6,23.0,86,30.12,10.0,SSE,10.4,-,N/A,,Overcast,160,2013-03-03 02:35:00
8:55 PM,26.6,23.0,86,30.13,10.0,SSE,9.2,-,N/A,,Overcast,160,2013-03-03 02:55:00
9:15 PM,26.6,23.0,86,30.12,10.0,SSE,9.2,-,N/A,,Overcast,150,2013-03-03 03:15:00
9:35 PM,24.8,21.2,86,30.12,10.0,SSE,9.2,-,N/A,,Overcast,150,2013-03-03 03:35:00
9:55 PM,24.8,23.0,93,30.11,10.0,SE,9.2,-,N/A,,Overcast,140,2013-03-03 03:55:00
10:15 PM,24.8,23.0,93,30.10,10.0,SE,9.2,-,N/A,,Overcast,140,2013-03-03 04:15:00
10:35 PM,24.8,23.0,93,30.09,10.0,SE,10.4,-,N/A,,Overcast,140,2013-03-03 04:35:00
10:55 PM,24.8,23.0,93,30.09,10.0,SE,11.5,-,N/A,,Overcast,140,2013-03-03 04:55:00
11:15 PM,24.8,23.0,93,30.09,10.0,SE,10.4,-,N/A,,Overcast,140,2013-03-03 05:15:00
11:35 PM,24.8,23.0,93,30.08,10.0,SE,12.7,-,N/A,,Overcast,140,2013-03-03 05:35:00
11:55 PM,24.8,23.0,93,30.08,10.0,SE,10.4,-,N/A,,Overcast,140,2013-03-03 05:55:00